Погода в Совхозном

Россия / Свердловская область     56°33′19″N   61°26′37″E
темп.,
°C
ветер,
м/с
пор.,
м/с
влажн.,
%
обл.,
%
осадки,
мм/ч
давл.,
гПа
погр.,
м
2 июля, сб
сб223:00+11ссз2279100 0.0 101420
02:00+10ссз3579100 0.0 101465
05:00+11ссз3682100 0.0 1014146
08:00+14ссз3471100 0.0 1014355
11:00+18ссз365699 0.0 10131346
14:00+20ссв354878 0.0 10121611
17:00+21в234825 0.0 10121482
20:00+18ю227298 0.0 101233
3 июля, вс
вс323:00+15юз3477100 0.0 101295
02:00+14зюз2477100 0.0 101173
05:00+14з3477100 0.0 101095
08:00+15зсз2578100 0.0 1010142
11:00+19зсз346268 0.0 1009510
14:00+21ссз4450100 0.0 10081559
17:00+22ссз1350100 0.0 10071613
20:00+15ссв51088100 0.9 1008417
4 июля, пн
пн423:00+12ссв389895 0.9 1008264
02:00+12ссв5897100 0.0 1008542
05:00+11ссв61094100 0.1 1008614
08:00+11св6128797 0.0 1008762
11:00+15св796392 0.1 10081490
14:00+16всв695699 0.1 10081971
17:00+16св785968 0.1 10091774
20:00+13св597020 0.0 1010874
5 июля, вт
вт523:00+9ссв511835 0.0 1011392
02:00+8ссв4108130 0.0 1011341
05:00+6с410855 0.0 1013257
08:00+10с5107286 0.0 1013454
11:00+12ссв487084 0.0 1014625
14:00+17ссв4646100 0.0 10132295
17:00+18св254895 0.0 10131519
20:00+15зсз226493 0.0 101318
6 июля, ср
ср623:00+12сз2269100 0.0 101417
02:00+12сз366613 0.0 1014113
05:00+11зсз3669100 0.0 1015120
08:00+13зсз247199 0.0 1014149
11:00+19ссз1253100 0.0 1014859
14:00+20сз3350100 0.0 1014965
17:00+20зсз3456100 0.0 1014704
20:00+17з127314 0.0 101420